Flag for Switzerland Weather past 2 weeks in Montreux, Vaud, Switzerland

Now
68 °F

Mild.


Feels Like: 68 °F
Forecast: 47 / 72 °F
Wind: 2 mph from Northwest

Location: Aigle

Current Time: Jul 24, 2014 at 10:54:06 AM

Latest Report: Jul 24, 2014 at 10:00 AM


Visibility: N/A

Pressure: 29.87 "Hg

Humidity: 82%

Dew point: 62 °F

Location of MontreuxLocation

Historic Weather in Montreux — Graph

°F

Montreux temperature yesterday

Maximum temperature yesterday: 75 °F (at 5:00 PM)
Minimum temperature yesterday: 60 °F (at 6:00 AM)
Average temperature yesterday: 68 °F

Past Weeks' High & Low Weather Summary

 TemperatureHumidityPressure
High85 °F (Jul 18, 6:00 PM)100% (Jul 12, 2:00 AM)30.19 "Hg (Jul 12, 2:00 AM)
Low50 °F (Jul 10, 6:00 AM)42% (Jul 19, 4:00 PM)29.80 "Hg (Jul 20, 6:00 PM)
Average65 °F83%29.98 "Hg
* Reported Jul 9 10:00 AM — Jul 24 9:00 AM, Montreux, Weather by CustomWeather, © 2014

Note: Actual official high and low records may vary slightly from our data, if they occured in-between our weather recording intervals... More about our weather records

Advertising

Montreux weather history for previous 24 hours

 ConditionsComfort  
Time TempWeatherWind HumidityBarometerVisibility
9:00 AM
Jul 24
65 °FMild.6 mph84%29.86 "HgN/A
8:00 AM64 °FMild.3 mph84%29.87 "HgN/A
7:00 AM64 °FMild.7 mph84%29.86 "HgN/A
6:00 AM63 °FMild.9 mph87%29.86 "HgN/A
5:00 AM63 °FHeavy rain. Overcast.8 mph93%29.86 "Hg6 mi
4:00 AM65 °FMild.5 mph95%29.86 "HgN/A
3:00 AM66 °FMild.1 mph95%29.85 "HgN/A
2:00 AM67 °FMild.6 mph90%29.85 "HgN/A
1:00 AM68 °FMild.3 mph90%29.85 "HgN/A
12:00 AM67 °FMild.1 mph95%29.85 "HgN/A
11:00 PM
Jul 23
66 °FMild.1 mph94%29.86 "HgN/A
10:00 PM68 °FMild.1 mph91%29.85 "HgN/A
9:00 PM70 °FMild.1 mph86%29.84 "HgN/A
8:00 PM71 °FFog.3 mph79%29.83 "Hg3 mi
7:00 PM73 °FMild.5 mph75%29.83 "HgN/A
6:00 PM74 °FMild.5 mph72%29.82 "HgN/A
5:00 PM75 °FMild.6 mph65%29.83 "HgN/A
4:00 PM74 °FMild.7 mph67%29.83 "HgN/A
3:00 PM74 °FMild.9 mph68%29.83 "HgN/A
Weather by CustomWeather, © 2014

See weather overviewHow to use our weather pages